SCP
0 0 0 0 0 0 0 0 0 0 0 3 2 2 2 2 1 0 0 0 0 0 0 0 0 0 0 0 0 0 0 0 0 0 0 0 0 0 0 0 0 0 0
0 0 0 0 0 0 0 0 0 0 0 2 3 3 2 1 0 0 0 0 0 0 0 0 0 0 0 0 0 0 0 0 0 0 0 0 0 0 0 0 0 0 0
0 0 0 0 0 0 0 0 0 0 0 0 3 0 0 0 0 0 0 0 0 0 0 0 0 0 0 0 0 0 0 0 0 0 0 0 0 0 0 0 0 0 0
0 0 0 0 0 0 0 0 0 0 0 4 1 0 0 0 0 0 0 0 0 0 0 0 0 0 0 0 0 0 0 0 0 0 0 0 0 0 0 0 0 0 0
0 0 0 0 0 0 0 0 0 0 1 4 1 0 0 0 0 0 0 0 0 0 0 0 0 0 0 0 0 0 0 0 0 0 0 0 0 0 0 0 0 0 0
0 0 0 0 0 0 0 0 0 0 2 3 1 0 0 0 0 0 0 0 0 0 0 0 0 0 0 0 0 0 0 0 0 0 0 0 0 0 0 0 0 0 0
0 0 0 0 0 0 0 0 0 0 1 1 1 0 0 0 0 0 0 0 0 0 0 0 0 0 0 0 0 0 0 0 0 0 0 0 0 0 0 0 0 0 0
0 0 0 0 0 0 0 0 0 1 1 1 0 0 0 0 0 0 0 0 0 0 0 0 0 0 0 0 0 0 0 0 0 0 0 0 0 0 0 0 0 0 0
0 0 0 0 0 0 0 0 0 1 1 1 0 0 0 0 0 0 0 0 0 0 0 0 0 0 0 0 0 0 0 0 0 0 0 0 0 0 0 0 0 0 0
0 0 0 0 0 0 0 0 0 0 0 0 0 0 0 0 0 0 0 0 0 0 0 0 0 0 0 0 0 0 0 0 0 0 0 0 0 0 0 0 0 0 0
0 0 0 0 0 0 0 0 0 0 0 0 0 0 0 0 0 0 0 0 0 0 0 0 0 0 0 0 0 0 0 0 0 0 0 0 0 0 0 0 0 0 0
0 0 0 0 0 -0 0 0 0 0 0 0 0 0 0 0 0 0 0 0 0 0 0 0 0 0 0 0 0 0 0 0 0 0 0 0 0 0 0 0 0 0 0
0 0 0 0 0 -0 0 0 0 0 0 0 0 0 0 0 0 0 0 0 0 0 0 0 0 0 0 0 0 0 0 0 0 0 0 0 0 0 0 0 0 0 0
0 0 0 0 0 0 0 0 0 0 0 0 0 0 0 0 0 0 0 0 0 0 0 0 0 0 0 0 0 0 0 0 0 0 0 0 0 0 0 0 0 0 0
0 0 0 0 0 0 0 0 0 0 0 0 0 0 0 0 0 0 0 0 0 0 0 0 0 0 0 0 0 0 0 0 0 0 0 0 0 0 0 0 0 0 0
0 0 0 0 0 0 0 0 0 0 0 0 0 0 0 0 0 0 0 0 0 0 0 0 0 0 0 0 0 0 0 0 0 0 0 0 0 0 0 0 0 0 0
0 -0 -0 0 0 0 0 0 0 0 0 0 0 0 0 0 0 0 0 0 0 0 0 0 0 0 0 0 0 0 0 0 0 0 0 0 0 0 0 0 0 0 0
0 -0 0 0 0 0 0 0 0 0 0 0 0 0 0 0 0 0 0 0 0 0 0 0 0 0 0 0 0 0 0 0 0 0 0 0 0 0 0 0 0 0 0
0 0 0 0 0 0 0 0 0 0 0 0 0 0 0 0 0 0 0 0 0 0 0 0 0 0 0 0 0 0 0 0 0 0 0 0 0 0 0 0 0 0 0
0 0 0 0 0 0 0 -0 0 0 0 0 0 0 0 0 0 0 0 0 0 0 0 0 0 0 0 0 0 0 0 0 0 0 0 0 0 0 0 0 0 0 0
-0 0 0 0 0 0 0 -0 0 0 0 0 0 0 0 0 0 0 0 0 0 0 0 0 0 0 0 0 0 0 0 0 0 0 0 0 0 0 0 0 0 0 0
-0 -0 -0 0 0 0 0 0 0 0 0 0 0 0 0 0 0 0 0 0 0 0 0 0 0 0 0 0 0 0 0 0 0 0 0 0 0 0 0 0 0 0 0
-0 -0 -0 -0 -0 -0 0 0 -0 0 0 0 0 0 0 0 0 0 0 0 0 0 0 0 0 0 0 0 0 0 0 0 0 0 0 0 0 0 0 0 0 0 0
-0 -0 -0 -0 -0 -0 -0 -0 -0 -0 -0 0 0 0 0 0 0 0 0 0 0 0 0 0 0 0 0 0 0 0 0 0 0 0 0 0 0 0 0 0 0 0 0
-0 -0 -0 -0 -0 -0 -0 -0 -0 -0 -0 0 0 0 0 0 0 0 0 0 0 0 0 0 0 0 0 0 0 0 0 0 0 0 0 0 0 0 0 0 0 0 0
-0 -0 -0 -0 -0 -0 -0 -0 -0 0 0 0 0 0 0 0 0 0 0 0 0 0 0 0 0 0 0 0 0 0 0 0 0 0 0 0 0 0 0 0 0 0 0
Wind_Speed_500mb
61 53 47 57 58 73 68 63 67 67 66 68 62 55 64 62 57 56 62 51 39 38 38 31 29 26 19 12 4 4 10 14 19 18 14 9 14 15 14 12 19 26 34
58 58 62 55 64 64 72 68 64 58 67 67 68 59 66 65 66 68 64 52 47 45 39 33 29 27 20 12 4 5 10 15 20 21 13 4 9 12 12 19 28 33 32
63 64 64 67 64 68 68 63 68 63 62 67 69 69 70 71 72 76 66 64 55 49 45 37 31 29 22 14 6 4 10 16 18 19 13 4 4 19 19 14 23 26 29
52 61 65 72 60 72 69 71 58 67 65 75 84 87 77 84 87 80 69 66 59 55 49 41 36 31 24 16 8 5 9 15 18 20 14 11 13 8 16 13 23 33 37
34 38 46 51 59 72 67 72 73 66 73 81 90 84 77 80 79 77 71 69 65 59 53 45 40 34 26 18 10 7 10 15 18 18 19 18 16 16 19 42 39 45 49
26 23 20 30 39 53 74 60 80 75 68 77 88 82 76 80 83 78 77 76 69 63 56 49 43 36 27 19 12 10 13 16 19 21 22 22 21 16 25 40 55 59 63
28 24 26 30 31 45 52 77 67 85 79 76 80 75 73 69 75 80 85 81 72 69 61 54 46 38 29 20 14 13 16 19 22 24 24 25 25 27 31 39 52 61 72
29 17 20 31 44 39 50 53 65 79 82 76 79 76 69 67 69 75 83 75 73 72 61 52 46 37 29 21 16 16 19 22 25 26 27 28 28 31 34 41 47 63 65
24 12 16 24 43 43 42 59 65 78 75 77 80 78 70 73 66 73 79 77 73 67 58 51 46 37 28 20 17 19 21 23 27 29 30 32 33 36 39 42 45 48 52
32 15 19 31 45 35 37 57 63 71 71 77 81 71 79 73 65 73 80 75 68 60 54 51 43 34 25 19 17 19 23 25 28 32 34 34 37 40 42 45 45 46 53
9 10 21 37 46 28 37 50 63 66 73 85 74 78 75 64 66 71 73 67 62 55 53 49 40 29 22 19 19 23 26 28 32 32 35 40 42 44 43 47 49 49 48
12 20 20 32 38 24 32 46 58 66 84 77 78 75 66 68 71 72 70 64 57 52 49 42 32 25 20 18 22 24 27 31 32 33 37 41 44 46 49 50 48 47 51
30 8 18 28 37 23 30 43 55 74 73 70 72 73 69 72 76 73 67 60 54 50 43 34 26 20 17 19 23 26 29 30 31 34 39 44 46 50 51 50 50 54 57
22 11 16 18 28 20 35 38 68 70 68 68 68 73 76 77 74 69 66 58 49 43 38 30 22 17 17 21 27 28 30 31 33 37 40 44 47 48 49 54 55 51 54
29 18 21 15 21 21 24 51 65 67 62 61 69 74 76 75 72 68 59 50 47 41 30 21 15 14 19 24 28 30 32 34 37 37 39 42 43 47 48 41 43 49 53
27 30 24 15 20 31 49 49 47 42 48 62 74 76 74 73 68 62 55 47 38 29 22 16 12 17 22 25 30 32 33 35 37 40 40 43 45 43 34 38 40 42 49
37 33 15 27 36 39 40 40 40 46 64 75 76 76 73 64 49 57 45 42 32 20 13 10 12 19 27 26 30 32 34 36 38 39 39 44 43 43 43 48 43 52 52
32 15 27 34 32 33 37 47 58 68 74 76 72 59 57 49 51 41 39 28 19 14 9 9 16 22 24 27 29 33 36 38 37 33 34 37 42 41 41 47 50 59 67
27 28 26 26 31 40 48 62 68 64 57 53 57 53 57 54 43 35 30 22 13 8 7 14 18 19 23 30 32 35 39 38 35 32 34 37 34 39 40 46 58 70 72
26 24 23 29 38 51 56 56 54 52 59 60 56 52 43 39 38 28 20 14 6 5 10 12 15 18 21 27 36 40 42 41 37 36 36 36 39 38 40 50 61 70 73
34 36 43 50 51 50 57 65 64 58 45 44 43 43 41 35 26 21 14 5 4 4 7 10 14 19 25 31 36 43 42 36 38 44 43 46 42 40 48 49 56 61 50
45 46 56 55 55 61 58 58 59 57 56 54 50 43 37 27 20 11 6 4 2 3 7 12 15 16 23 31 36 30 25 29 38 41 47 44 46 50 48 45 45 42 45
51 50 54 55 44 40 44 53 54 54 54 49 43 35 26 18 13 10 8 4 1 6 10 15 20 24 30 34 33 32 36 42 37 39 41 47 48 47 40 42 38 38 44
50 49 52 53 52 48 49 55 54 46 40 35 29 24 19 17 14 9 4 4 8 12 17 23 28 32 36 35 36 39 42 42 40 46 53 55 45 34 39 41 39 40 43
45 45 51 56 56 52 49 44 39 33 32 30 26 22 17 13 9 7 8 11 15 19 24 28 32 37 37 35 34 38 42 41 41 47 50 45 40 46 44 43 42 43 49
44 50 54 52 52 46 42 38 33 25 21 21 19 15 11 9 9 9 11 14 19 23 28 31 32 30 33 35 37 41 39 37 40 41 42 42 42 45 45 47 48 49 54
Wind_Direction_500mb
251 251 243 236 233 235 236 232 220 221 214 219 222 202 201 210 208 209 208 200 209 212 211 216 223 220 215 223 233 350 16 13 6 4 355 337 337 327 286 271 283 290 288
255 252 250 247 237 233 233 232 222 222 223 215 224 216 204 206 214 211 205 213 211 214 209 221 220 210 210 210 226 343 1 13 11 12 16 347 302 300 308 293 282 286 297
254 253 251 247 243 235 229 233 229 220 221 218 212 206 207 207 213 215 213 208 205 210 208 210 210 209 210 208 218 326 350 360 8 10 12 357 272 295 282 291 295 298 303
250 253 254 252 244 239 234 228 229 222 220 213 210 218 216 209 214 216 215 200 200 205 207 206 204 207 211 212 224 287 338 349 354 350 352 332 295 297 294 263 264 288 282
255 254 253 252 256 247 240 231 230 225 216 214 215 218 218 215 219 212 206 194 197 204 203 207 202 203 212 218 235 285 324 338 342 339 332 324 310 300 284 296 303 295 294
281 258 276 274 273 253 244 238 221 219 214 212 217 219 217 213 218 212 201 193 198 202 202 202 202 203 213 222 244 287 315 327 329 329 323 317 310 289 272 282 297 302 309
294 283 281 280 278 267 249 239 233 215 211 214 214 218 221 220 222 208 199 194 198 201 202 203 200 203 214 225 249 283 305 317 321 324 317 311 305 297 293 291 297 301 307
249 245 296 294 290 262 252 241 227 212 208 207 212 213 205 222 214 209 201 200 202 201 201 200 200 205 216 230 254 282 301 312 315 317 314 309 306 301 299 298 299 303 305
254 236 286 298 297 275 251 236 219 211 212 204 204 203 207 216 208 202 197 199 200 199 197 199 202 206 218 233 259 283 299 309 312 314 312 308 306 302 298 296 295 297 299
230 217 291 301 301 281 264 229 217 214 205 203 203 203 205 207 205 198 196 198 199 197 199 201 200 207 219 239 264 286 299 306 311 308 308 305 302 300 297 294 295 294 290
327 273 298 297 300 280 249 230 218 212 203 200 193 201 199 199 199 193 194 196 195 198 197 200 201 210 227 249 272 289 298 305 307 306 304 304 302 300 300 301 301 299 297
284 285 278 294 307 274 254 224 213 208 195 196 194 195 199 194 186 187 190 190 192 193 192 192 198 214 236 261 280 293 299 303 306 305 303 301 301 301 300 300 301 294 293
279 249 287 288 298 255 241 214 204 185 187 190 194 193 189 183 185 182 185 186 189 185 184 190 204 223 247 271 287 296 300 304 304 304 303 302 300 301 303 300 295 296 300
315 317 277 297 285 256 231 197 165 176 188 188 187 184 180 181 180 180 181 183 183 181 185 196 212 234 261 285 295 298 302 303 303 303 301 301 300 300 299 297 302 311 312
312 315 322 310 257 232 186 153 163 174 177 179 176 175 177 176 175 175 175 173 175 182 186 198 221 254 284 298 299 300 304 305 306 304 298 296 293 287 293 300 304 306 305
291 291 304 222 210 174 159 161 163 175 182 172 169 170 170 170 171 167 166 166 170 178 189 211 249 275 293 304 299 301 307 308 308 307 303 301 301 306 298 297 299 297 303
284 281 217 190 173 165 156 158 164 164 162 163 165 166 166 162 161 158 160 167 167 183 194 230 276 297 302 300 299 304 309 312 312 311 308 309 311 308 306 308 303 304 305
282 179 164 166 166 167 169 170 163 161 162 163 161 158 152 148 159 152 159 164 170 175 212 274 298 292 294 297 301 307 313 315 316 312 309 305 305 309 308 308 307 303 304
125 137 153 158 165 168 169 163 157 159 156 148 141 138 148 155 155 168 161 156 167 202 284 302 287 294 297 299 307 310 315 319 318 310 298 301 306 300 312 307 305 306 308
129 143 150 156 161 154 155 153 146 140 139 140 142 149 149 156 157 152 151 162 173 283 281 282 293 297 299 306 311 319 325 322 320 320 320 315 311 311 308 309 308 306 307
119 127 137 137 142 147 156 147 140 134 147 149 145 143 149 157 150 146 139 154 244 270 281 296 306 314 316 319 322 319 325 332 333 323 319 318 320 315 310 307 301 303 315
115 123 123 126 134 141 141 133 134 140 146 143 148 146 146 139 138 150 145 147 197 280 296 309 316 314 309 312 317 320 321 323 313 314 313 318 318 309 310 306 310 315 309
120 122 123 122 125 135 148 144 133 144 145 143 138 139 141 140 133 133 139 140 325 319 321 324 326 322 317 316 314 305 305 313 316 308 314 310 313 315 312 316 315 313 313
134 139 139 137 138 146 145 137 138 140 141 139 135 132 131 133 128 115 78 4 350 342 335 327 323 319 318 316 311 309 314 322 323 326 318 315 317 318 313 317 321 321 323
144 142 138 134 132 136 135 133 132 135 132 129 128 128 120 113 97 66 28 356 351 335 329 324 321 319 321 323 319 317 320 324 324 311 312 323 327 323 327 328 330 331 334
146 143 137 134 134 137 132 128 126 128 122 119 118 115 105 79 48 20 358 341 335 330 326 328 333 331 323 322 321 321 324 323 314 315 318 323 325 329 330 331 332 337 337
Wind_Speed_850mb
61 53 47 57 58 73 68 63 67 67 66 68 62 55 64 62 57 56 62 51 39 38 38 31 29 26 19 12 4 4 10 14 19 18 14 9 14 15 14 12 19 26 34
58 58 62 55 64 64 72 68 64 58 67 67 68 59 66 65 66 68 64 52 47 45 39 33 29 27 20 12 4 5 10 15 20 21 13 4 9 12 12 19 28 33 32
63 64 64 67 64 68 68 63 68 63 62 67 69 69 70 71 72 76 66 64 55 49 45 37 31 29 22 14 6 4 10 16 18 19 13 4 4 19 19 14 23 26 29
52 61 65 72 60 72 69 71 58 67 65 75 84 87 77 84 87 80 69 66 59 55 49 41 36 31 24 16 8 5 9 15 18 20 14 11 13 8 16 13 23 33 37
34 38 46 51 59 72 67 72 73 66 73 81 90 84 77 80 79 77 71 69 65 59 53 45 40 34 26 18 10 7 10 15 18 18 19 18 16 16 19 42 39 45 49
26 23 20 30 39 53 74 60 80 75 68 77 88 82 76 80 83 78 77 76 69 63 56 49 43 36 27 19 12 10 13 16 19 21 22 22 21 16 25 40 55 59 63
28 24 26 30 31 45 52 77 67 85 79 76 80 75 73 69 75 80 85 81 72 69 61 54 46 38 29 20 14 13 16 19 22 24 24 25 25 27 31 39 52 61 72
29 17 20 31 44 39 50 53 65 79 82 76 79 76 69 67 69 75 83 75 73 72 61 52 46 37 29 21 16 16 19 22 25 26 27 28 28 31 34 41 47 63 65
24 12 16 24 43 43 42 59 65 78 75 77 80 78 70 73 66 73 79 77 73 67 58 51 46 37 28 20 17 19 21 23 27 29 30 32 33 36 39 42 45 48 52
32 15 19 31 45 35 37 57 63 71 71 77 81 71 79 73 65 73 80 75 68 60 54 51 43 34 25 19 17 19 23 25 28 32 34 34 37 40 42 45 45 46 53
9 10 21 37 46 28 37 50 63 66 73 85 74 78 75 64 66 71 73 67 62 55 53 49 40 29 22 19 19 23 26 28 32 32 35 40 42 44 43 47 49 49 48
12 20 20 32 38 24 32 46 58 66 84 77 78 75 66 68 71 72 70 64 57 52 49 42 32 25 20 18 22 24 27 31 32 33 37 41 44 46 49 50 48 47 51
30 8 18 28 37 23 30 43 55 74 73 70 72 73 69 72 76 73 67 60 54 50 43 34 26 20 17 19 23 26 29 30 31 34 39 44 46 50 51 50 50 54 57
22 11 16 18 28 20 35 38 68 70 68 68 68 73 76 77 74 69 66 58 49 43 38 30 22 17 17 21 27 28 30 31 33 37 40 44 47 48 49 54 55 51 54
29 18 21 15 21 21 24 51 65 67 62 61 69 74 76 75 72 68 59 50 47 41 30 21 15 14 19 24 28 30 32 34 37 37 39 42 43 47 48 41 43 49 53
27 30 24 15 20 31 49 49 47 42 48 62 74 76 74 73 68 62 55 47 38 29 22 16 12 17 22 25 30 32 33 35 37 40 40 43 45 43 34 38 40 42 49
37 33 15 27 36 39 40 40 40 46 64 75 76 76 73 64 49 57 45 42 32 20 13 10 12 19 27 26 30 32 34 36 38 39 39 44 43 43 43 48 43 52 52
32 15 27 34 32 33 37 47 58 68 74 76 72 59 57 49 51 41 39 28 19 14 9 9 16 22 24 27 29 33 36 38 37 33 34 37 42 41 41 47 50 59 67
27 28 26 26 31 40 48 62 68 64 57 53 57 53 57 54 43 35 30 22 13 8 7 14 18 19 23 30 32 35 39 38 35 32 34 37 34 39 40 46 58 70 72
26 24 23 29 38 51 56 56 54 52 59 60 56 52 43 39 38 28 20 14 6 5 10 12 15 18 21 27 36 40 42 41 37 36 36 36 39 38 40 50 61 70 73
34 36 43 50 51 50 57 65 64 58 45 44 43 43 41 35 26 21 14 5 4 4 7 10 14 19 25 31 36 43 42 36 38 44 43 46 42 40 48 49 56 61 50
45 46 56 55 55 61 58 58 59 57 56 54 50 43 37 27 20 11 6 4 2 3 7 12 15 16 23 31 36 30 25 29 38 41 47 44 46 50 48 45 45 42 45
51 50 54 55 44 40 44 53 54 54 54 49 43 35 26 18 13 10 8 4 1 6 10 15 20 24 30 34 33 32 36 42 37 39 41 47 48 47 40 42 38 38 44
50 49 52 53 52 48 49 55 54 46 40 35 29 24 19 17 14 9 4 4 8 12 17 23 28 32 36 35 36 39 42 42 40 46 53 55 45 34 39 41 39 40 43
45 45 51 56 56 52 49 44 39 33 32 30 26 22 17 13 9 7 8 11 15 19 24 28 32 37 37 35 34 38 42 41 41 47 50 45 40 46 44 43 42 43 49
44 50 54 52 52 46 42 38 33 25 21 21 19 15 11 9 9 9 11 14 19 23 28 31 32 30 33 35 37 41 39 37 40 41 42 42 42 45 45 47 48 49 54
Wind_Direction_850mb
251 251 243 236 233 235 236 232 220 221 214 219 222 202 201 210 208 209 208 200 209 212 211 216 223 220 215 223 233 350 16 13 6 4 355 337 337 327 286 271 283 290 288
255 252 250 247 237 233 233 232 222 222 223 215 224 216 204 206 214 211 205 213 211 214 209 221 220 210 210 210 226 343 1 13 11 12 16 347 302 300 308 293 282 286 297
254 253 251 247 243 235 229 233 229 220 221 218 212 206 207 207 213 215 213 208 205 210 208 210 210 209 210 208 218 326 350 360 8 10 12 357 272 295 282 291 295 298 303
250 253 254 252 244 239 234 228 229 222 220 213 210 218 216 209 214 216 215 200 200 205 207 206 204 207 211 212 224 287 338 349 354 350 352 332 295 297 294 263 264 288 282
255 254 253 252 256 247 240 231 230 225 216 214 215 218 218 215 219 212 206 194 197 204 203 207 202 203 212 218 235 285 324 338 342 339 332 324 310 300 284 296 303 295 294
281 258 276 274 273 253 244 238 221 219 214 212 217 219 217 213 218 212 201 193 198 202 202 202 202 203 213 222 244 287 315 327 329 329 323 317 310 289 272 282 297 302 309
294 283 281 280 278 267 249 239 233 215 211 214 214 218 221 220 222 208 199 194 198 201 202 203 200 203 214 225 249 283 305 317 321 324 317 311 305 297 293 291 297 301 307
249 245 296 294 290 262 252 241 227 212 208 207 212 213 205 222 214 209 201 200 202 201 201 200 200 205 216 230 254 282 301 312 315 317 314 309 306 301 299 298 299 303 305
254 236 286 298 297 275 251 236 219 211 212 204 204 203 207 216 208 202 197 199 200 199 197 199 202 206 218 233 259 283 299 309 312 314 312 308 306 302 298 296 295 297 299
230 217 291 301 301 281 264 229 217 214 205 203 203 203 205 207 205 198 196 198 199 197 199 201 200 207 219 239 264 286 299 306 311 308 308 305 302 300 297 294 295 294 290
327 273 298 297 300 280 249 230 218 212 203 200 193 201 199 199 199 193 194 196 195 198 197 200 201 210 227 249 272 289 298 305 307 306 304 304 302 300 300 301 301 299 297
284 285 278 294 307 274 254 224 213 208 195 196 194 195 199 194 186 187 190 190 192 193 192 192 198 214 236 261 280 293 299 303 306 305 303 301 301 301 300 300 301 294 293
279 249 287 288 298 255 241 214 204 185 187 190 194 193 189 183 185 182 185 186 189 185 184 190 204 223 247 271 287 296 300 304 304 304 303 302 300 301 303 300 295 296 300
315 317 277 297 285 256 231 197 165 176 188 188 187 184 180 181 180 180 181 183 183 181 185 196 212 234 261 285 295 298 302 303 303 303 301 301 300 300 299 297 302 311 312
312 315 322 310 257 232 186 153 163 174 177 179 176 175 177 176 175 175 175 173 175 182 186 198 221 254 284 298 299 300 304 305 306 304 298 296 293 287 293 300 304 306 305
291 291 304 222 210 174 159 161 163 175 182 172 169 170 170 170 171 167 166 166 170 178 189 211 249 275 293 304 299 301 307 308 308 307 303 301 301 306 298 297 299 297 303
284 281 217 190 173 165 156 158 164 164 162 163 165 166 166 162 161 158 160 167 167 183 194 230 276 297 302 300 299 304 309 312 312 311 308 309 311 308 306 308 303 304 305
282 179 164 166 166 167 169 170 163 161 162 163 161 158 152 148 159 152 159 164 170 175 212 274 298 292 294 297 301 307 313 315 316 312 309 305 305 309 308 308 307 303 304
125 137 153 158 165 168 169 163 157 159 156 148 141 138 148 155 155 168 161 156 167 202 284 302 287 294 297 299 307 310 315 319 318 310 298 301 306 300 312 307 305 306 308
129 143 150 156 161 154 155 153 146 140 139 140 142 149 149 156 157 152 151 162 173 283 281 282 293 297 299 306 311 319 325 322 320 320 320 315 311 311 308 309 308 306 307
119 127 137 137 142 147 156 147 140 134 147 149 145 143 149 157 150 146 139 154 244 270 281 296 306 314 316 319 322 319 325 332 333 323 319 318 320 315 310 307 301 303 315
115 123 123 126 134 141 141 133 134 140 146 143 148 146 146 139 138 150 145 147 197 280 296 309 316 314 309 312 317 320 321 323 313 314 313 318 318 309 310 306 310 315 309
120 122 123 122 125 135 148 144 133 144 145 143 138 139 141 140 133 133 139 140 325 319 321 324 326 322 317 316 314 305 305 313 316 308 314 310 313 315 312 316 315 313 313
134 139 139 137 138 146 145 137 138 140 141 139 135 132 131 133 128 115 78 4 350 342 335 327 323 319 318 316 311 309 314 322 323 326 318 315 317 318 313 317 321 321 323
144 142 138 134 132 136 135 133 132 135 132 129 128 128 120 113 97 66 28 356 351 335 329 324 321 319 321 323 319 317 320 324 324 311 312 323 327 323 327 328 330 331 334
146 143 137 134 134 137 132 128 126 128 122 119 118 115 105 79 48 20 358 341 335 330 326 328 333 331 323 322 321 321 324 323 314 315 318 323 325 329 330 331 332 337 337